This demonstration page uses our WeatherBlox Daily Observations layout. Learn more.

Left ArrowRight Arrow

Hourly Observations for December 26, 2015

Temp ( °F °C ) Dew Point ( °F °C ) Humidity (%) Winds ( mph kmh ) Pressure ( in mb ) Visibility ( mi km ) Precip ( " mm )
12:53 am 00:53 Cloudy with Light Rain 64 17.8 61 16.1 90 90 N 3 6 30.28 1025 10 16 0.04 1.02
1:53 am 01:53 Cloudy with Light Rain 63 17.2 61 16.1 93 93 Calm 30.25 1024 10 16 0.01 0.25
2:53 am 02:53 Mostly Cloudy 64 17.8 60 15.6 87 87 E 7 11 30.20 1023 10 16 0.00 0.03
3:53 am 03:53 Clear 64 17.8 60 15.6 87 87 VRB 3 6 30.19 1022 10 16 0.00 0.00
4:53 am 04:53 Clear 61 16.1 59 15 93 93 WNW 5 7 30.19 1023 8 13 0.00 0.00
5:53 am 05:53 Clear 60 15.6 58 14.4 93 93 Calm 30.22 1023 10 16 0.00 0.00
6:53 am 06:53 Mostly Clear 59 15 57 13.9 93 93 NNE 3 6 30.24 1024 7 11 0.00 0.00
7:04 am 07:04 Mostly Clear 59 15 57 14 94 94 Calm 30.24 1024 10 16 0.00 0.00
7:53 am 07:53 Mostly Sunny 59 15 58 14.4 96 96 Calm 30.24 1024 10 16 0.00 0.00
8:53 am 08:53 Sunny 62 16.7 59 15 90 90 Calm 30.24 1024 10 16 0.00 0.00
9:53 am 09:53 Sunny 66 18.9 61 16.1 84 84 Calm 30.26 1025 10 16 0.00 0.00
10:53 am 10:53 Sunny 70 21.1 62 16.7 76 76 SSE 5 7 30.25 1025 10 16 0.00 0.00
11:36 am 11:36 Mostly Cloudy 72 22.2 64 17.8 76 76 S 8 13 30.24 1024 10 16 0.00 0.00
11:53 am 11:53 Cloudy 73 22.8 65 18.3 76 76 SSE 8 13 30.23 1024 10 16 0.00 0.00
12:30 pm 12:30 Cloudy 75 24 64 18 69 69 SSE 9 15 30.18 1022 10 16 0.00 0.00
12:40 pm 12:40 Cloudy 75 24 66 19 74 74 SSE 9 15 30.18 1022 10 16 0.00 0.00
12:53 pm 12:53 Cloudy 75 23.9 66 18.9 74 74 SSE 12 19 30.20 1023 10 16 0.00 0.00
1:25 pm 13:25 Cloudy 75 23.9 66 18.9 74 74 S 6 9 30.15 1021 10 16 0.00 0.00
1:53 pm 13:53 Cloudy 76 24.4 66 18.9 72 72 SSE 7 11 30.17 1022 10 16 0.00 0.00
2:30 pm 14:30 Cloudy 77 25 66 19 69 69 S 8 13 30.15 1021 10 16 0.00 0.00
2:53 pm 14:53 Cloudy 77 25 65 18.3 66 66 SSE 8 13 30.16 1021 10 16 0.00 0.00
3:53 pm 15:53 Cloudy 77 25 65 18.3 66 66 SSE 7 11 30.15 1021 10 16 0.00 0.00
4:53 pm 16:53 Mostly Cloudy 76 24.4 64 17.8 67 67 S 6 9 30.16 1021 10 16 0.00 0.00
5:53 pm 17:53 Clear 73 22.8 65 18.3 76 76 SSE 5 7 30.17 1022 10 16 0.00 0.00
6:53 pm 18:53 Partly Cloudy 71 21.7 65 18.3 81 81 SSE 6 9 30.17 1022 10 16 0.00 0.00
7:53 pm 19:53 Clear 70 21.1 65 18.3 84 84 SE 5 7 30.17 1022 10 16 0.00 0.00
8:53 pm 20:53 Clear 70 21.1 65 18.3 84 84 SE 6 9 30.17 1022 10 16 0.00 0.00
9:53 pm 21:53 Clear 65 18.3 63 17.2 93 93 Calm 30.17 1022 10 16 0.00 0.00
10:53 pm 22:53 Clear 68 20 65 18.3 90 90 ESE 3 6 30.16 1022 10 16 0.00 0.00
11:53 pm 23:53 Mostly Clear 68 20 65 18.3 90 90 E 3 6 30.15 1021 10 16 0.00 0.00

Powered by AerisWeather